Location: Kershaw
(34.5481°N, 80.5823°W)
Time: 02:20:41
(UTC+00:00)

Tiros 1 despin weight - Pass Details

Date: 10 October 2022
Orbit: 590 x 637 km, 48.2° (Epoch: 30 November)

Event Time Altitude Azimuth Distance (km) Brightness Sun altitude
Rises 21:48:38 0° 309° (NW) 2,847 ? 12.3°
Reaches altitude 10° 21:51:48 10° 333° (NNW) 1,954 ? 11.7°
Maximum altitude 21:54:28 15° 9° (N) 1,643 ? 11.2°
Drops below altitude 10° 21:57:08 10° 46° (NE) 1,972 ? 10.7°
Sets 22:00:21 0° 69° (ENE) 2,888 ? 10.0°
